Погода в Киндале

Россия / Томская область     59°09′09″N   80°34′45″E
темп.,
°C
ветер,
м/с
пор.,
м/с
влажн.,
%
обл.,
%
осадки,
мм/ч
давл.,
гПа
погр.,
м
19 апреля, пн
пн1901:00−11с91487100 0.2 1014816
04:00−14ссз81287100 0.1 1017570
07:00−15ссз7138687 0.1 1019503
10:00−13сз81180100 0.1 10191034
13:00−11сз91170100 0.1 10211309
16:00−9сз91169100 0.0 10221398
19:00−9зсз81280100 0.1 10231067
22:00−11зсз7128178 0.0 1025347
20 апреля, вт
вт2001:00−12зсз61289100 0.0 1025354
04:00−14зсз6119381 0.0 1025291
07:00−14зсз5119364 0.0 1025282
10:00−10зсз588063 0.0 1025578
13:00−6з5766100 0.0 10231152
16:00−4зюз6879100 0.1 10201088
19:00−5юз61092100 0.4 1018812
22:00−5ю51195100 0.6 1016572
21 апреля, ср
ср2101:00−5ююв5994100 1.1 1015323
04:00−6вюв589692 0.1 1017221
07:00−7всв489678 0.3 1020195
10:00−4всв578797 0.0 1024535
13:00−2всв5674100 0.1 10261062
16:00−1св5675100 0.2 10291044
19:00−1ссв367315 0.3 1031324
22:00−8с22855 0.0 103411
22 апреля, чт
чт2201:00−9ссв23925 0.0 103631
04:00−11с229511 0.0 103917
07:00−11с22955 0.0 104123
10:00−4с22795 0.0 1043203
13:00−2с12723 0.0 1043434
16:000сз12715 0.0 1044426
19:000в01745 0.0 1044106
22:00−6ююв22832 0.0 104610
23 апреля, пт
пт2301:00−7ю22832 0.0 104612
04:00−7ю229065 0.0 104616
07:00−7ю22915 0.0 104733
10:000ююв23784 0.0 1047283
13:00+2юв34835 0.0 1046469
16:00+3вюв45777 0.0 1045528
19:00+2вюв47815 0.0 1044164
22:00−2юв47865 0.0 104482